This demonstration page uses our WeatherBlox Daily Observations layout. Learn more.

Left ArrowRight Arrow

40.97296, -117.73568

Hourly Observations for August 1, 2022

Temp ( °F °C ) Dew Point ( °F °C ) Humidity (%) Winds ( mph kmh ) Pressure ( in mb ) Visibility ( mi km ) Precip ( " mm )
12:10 am 00:10 Cloudy with Haze 82 27.8 48 8.9 31 31 SSE 17 28 29.72 1006 4 6 0.00 0.00
12:56 am 00:56 Cloudy with Haze 81 27.2 47 8.3 30 30 S 15 24 29.86 1011 6 10 0.00 0.00
1:34 am 01:34 Cloudy with Haze 79 26.1 48 8.9 34 34 S 13 20 29.75 1008 5 8 0.00 0.00
1:56 am 01:56 Cloudy with Haze 79 26.1 48 8.9 34 34 S 14 22 29.87 1011 6 10 0.00 0.00
2:16 am 02:16 Partly Cloudy 77 25 48 8.9 36 36 S 14 22 29.78 1008 7 11 0.00 0.00
2:56 am 02:56 Clear 78 25.6 48 8.9 35 35 S 14 22 29.87 1011 8 13 0.00 0.00
3:56 am 03:56 Clear 75 23.9 48 8.9 39 39 S 13 20 29.88 1012 10 16 0.00 0.00
4:56 am 04:56 Clear 73 22.8 48 8.9 41 41 S 14 22 29.88 1012 10 16 0.00 0.00
5:56 am 05:56 Sunny 73 22.8 48 8.9 41 41 S 14 22 29.89 1012 10 16 0.00 0.00
6:56 am 06:56 Sunny 74 23.3 49 9.4 41 41 S 13 20 29.90 1013 10 16 0.00 0.00
7:56 am 07:56 Sunny 81 27.2 50 10 34 34 S 14 22 29.91 1013 10 16 0.00 0.00
8:56 am 08:56 Sunny 82 27.8 50 10 33 33 S 10 17 29.93 1014 10 16 0.00 0.00
9:56 am 09:56 Sunny 85 29.4 50 10 30 30 undefined N/A 29.91 1013 10 16 0.00 0.00
10:56 am 10:56 Sunny 87 30.6 50 10 28 28 VRB 3 6 29.91 1013 10 16 0.00 0.00
11:56 am 11:56 Sunny 92 33.3 49 9.4 23 23 WSW 10 17 29.89 1012 10 16 0.00 0.00
12:56 pm 12:56 Partly Cloudy with Light Rain 91 32.8 48 8.9 23 23 undefined N/A 29.88 1012 10 16 0.00 0.00
1:56 pm 13:56 Mostly Sunny 93 33.9 48 8.9 21 21 W 12 19 29.88 1012 10 16 0.00 0.00
2:56 pm 14:56 Sunny 87 30.6 51 10.6 29 29 SSW 22 35 29.87 1012 10 16 0.00 0.00
3:36 pm 15:36 Sunny 83 28.3 55 12.8 38 38 SSE 21 33 29.73 1007 10 16 0.00 0.00
3:56 pm 15:56 Sunny 80 26.7 54 12.2 41 41 S 21 33 29.91 1013 10 16 0.00 0.00
4:56 pm 16:56 Mostly Sunny 77 25 57 13.9 50 50 SSE 21 33 29.91 1013 10 16 0.00 0.00
5:56 pm 17:56 Sunny 79 26.1 55 12.8 44 44 SSE 15 24 29.88 1012 10 16 0.00 0.00
6:56 pm 18:56 Sunny 80 26.7 52 11.1 38 38 SSE 15 24 29.87 1012 10 16 0.00 0.00
7:56 pm 19:56 Mostly Cloudy 78 25.6 55 12.8 45 45 S 15 24 29.87 1011 10 16 0.00 0.00
8:56 pm 20:56 Mostly Cloudy 78 25.6 53 11.7 42 42 SSE 8 13 29.89 1012 10 16 0.00 0.00
9:56 pm 21:56 Cloudy with Light Rain 76 24.4 57 13.9 52 52 ESE 6 9 29.92 1013 10 16 0.00 0.00
10:56 pm 22:56 Clear 75 23.9 56 13.3 52 52 NE 9 15 29.92 1013 10 16 0.00 0.00
11:56 pm 23:56 Clear 75 23.9 55 12.8 50 50 Calm 29.91 1013 10 16 0.00 0.00

Powered by AerisWeather